Regional Weather Roundup
Issued by NWS

Home | Current Version | Previous Version | Graphics & Text | Print | Product List | Glossary On
Versions: 1 2 3 4 5 6 7 8 9 10 11 12 13 14 15 16 17 18 19 20 21 22 23 24 25 26 27 28 29 30 31 32 33 34 35 36 37 38 39 40 41 42 43 44 45 46 47 48 49 50
000
ASUS44 KMEG 281500
RWRTN
TENNESSEE HOURLY STATE WEATHER ROUNDUP
NATIONAL WEATHER SERVICE MEMPHIS TN
900 AM CST SAT FEB 28 2015

TNZ002-004-019-021-049-052-054-088>092-281600-
WEST TENNESSEE

CITY           SKY/WX    TMP DP  RH WIND       PRES   REMARKS
MEMPHIS INTL   CLOUDY    31  14  49 NE12      30.56R WCI  22
NWS MEMPHIS      N/A     30 N/A N/A MISG        N/A
JACKSON        CLOUDY    29  13  51 E9        30.58S WCI  20
DYERSBURG      MOSUNNY   27   7  43 NE14      30.61F WCI  15
UNION CITY     CLOUDY    21  16  79 NE9       30.60F WCI  11
PARIS          CLOUDY    23  12  63 NE8       30.60S WCI  14
LEXINGTON      CLOUDY    28  10  47 E10       30.58R WCI  19
SAVANNAH       CLOUDY    32  12  43 NE8       30.57S WCI  25
$$

TNZ008-025-027-028-033-062-065-066-281600-
NORTH MIDDLE TENNESSEE

CITY           SKY/WX    TMP DP  RH WIND       PRES   REMARKS
NASHVILLE      CLOUDY    30  13  49 NE7       30.62R WCI  23
CLARKSVILLE    CLOUDY    25  13  60 E8        30.64R WCI  16
COOKEVILLE     PTSUNNY   28  16  59 NE5       30.57F WCI  23
CROSSVILLE     CLOUDY    31  17  56 SE8       30.54R WCI  23
$$

TNZ061-075-076-078-094-096-097-281600-
SOUTH MIDDLE TENNESSEE

CITY           SKY/WX    TMP DP  RH WIND       PRES   REMARKS
FAYETTEVILLE   SUNNY     30  16  55 NE7         N/A  WCI  23
TULLAHOMA      MOSUNNY   32  16  51 VRB5      30.56S WCI  27
WINCHESTER     PTSUNNY   34  19  55 E7        30.56S WCI  28
COLUMBIA         N/A     28  14  54 NE7       30.57R WCI  21
SHELBYVILLE    CLOUDY    30  18  59 NE6       30.58F WCI  24
$$

TNZ017-018-042-046-047-281600-
NORTHEAST TENNESSEE

CITY           SKY/WX    TMP DP  RH WIND       PRES   REMARKS
TRI CITIES     PTSUNNY   26  13  57 NE3       30.60S
ELIZABETHTON   SUNNY     30  18  59 E6        30.58S WCI  24
$$

TNZ012-013-036-069-073-074-281600-
CENTRAL EAST TENNESSEE

CITY           SKY/WX    TMP DP  RH WIND       PRES   REMARKS
KNOXVILLE      PTSUNNY   28  17  63 NE10      30.60R WCI  19
OAK RIDGE      MOSUNNY   32  15  49 VRB3      30.63R
GATLINBURG     SUNNY     27  16  63 CALM      30.60R
$$

TNZ083-085-099-281600-
SOUTHEAST TENNESSEE

CITY           SKY/WX    TMP DP  RH WIND       PRES   REMARKS
CHATTANOOGA    PTSUNNY   34  17  50 NE3       30.61R
$$

SKY/WX REPORTED AS FAIR MEANS FEW OR NO CLOUDS BELOW
12 THOUSAND FEET.



USA.gov is the U.S. government's official web portal to all federal, state and local government web resources and services.